Location: ????????
(60.4333°N, 46.4710°E)
Time: 18:59:31
(UTC+00:00)

CZ-4B DEB - Pass Details

Date: 25 November 2020
Orbit: 841 x 861 km, 99.1° (Epoch: 16 January)

Event Time Altitude Azimuth Distance (km) Brightness Sun altitude
Rises 13:25:00 0° 162° (SSE) 3,407 7.5 -9.2°
Reaches altitude 10° 13:27:22 10° 163° (SSE) 2,472 6.8 -9.5°
Maximum altitude 13:32:52 81° 251° (WSW) 863 4.4 -10.1°
Drops below altitude 10° 13:38:23 10° 340° (NNW) 2,477 6.6 -10.7°
Sets 13:40:45 0° 341° (NNW) 3,415 7.3 -11.0°
